| time (UTC) | temp C | wind direction | speed KPH | gust KPH | rain 1hr cm | rain 24hr cm | rain mn cm | humidity % | barometer mb |
| 20260505125041 | 13 | 70 | 1.6 | 8.0 | 0.00 | 1.78 | 1.78 | 100 | 1008.9 |
| 20260505124053 | 13 | 96 | 1.6 | 9.7 | 0.00 | 1.78 | 1.78 | 100 | 1008.6 |
| 20260505123051 | 13 | 10 | 3.2 | 9.7 | 0.00 | 1.78 | 1.78 | 100 | 1008.7 |
| 20260505122049 | 14 | 66 | 1.6 | 6.4 | 0.00 | 1.78 | 1.78 | 100 | 1008.7 |
| 20260505121038 | 15 | 329 | 1.6 | 8.0 | 0.00 | 1.78 | 1.78 | 100 | 1008.1 |
| 20260505120030 | 15 | 127 | 1.6 | 6.4 | 0.00 | 1.78 | 1.78 | 100 | 1007.9 |
| 20260505115028 | 15 | 15 | 1.6 | 8.0 | 0.00 | 1.78 | 1.78 | 100 | 1007.7 |
| 20260505114046 | 16 | 55 | 0.0 | 1.6 | 0.00 | 1.78 | 1.78 | 100 | 1007.9 |
| 20260505113044 | 16 | 2 | 0.0 | 1.6 | 0.00 | 1.78 | 1.78 | 100 | 1007.7 |
| 20260505112047 | 16 | 2 | 0.0 | 1.6 | 0.05 | 1.78 | 1.78 | 100 | 1007.4 |
| 20260505111038 | 16 | 112 | 1.6 | 6.4 | 0.10 | 1.78 | 1.78 | 100 | 1007.5 |
| 20260505102100 | 16 | 124 | 0.0 | 1.6 | 0.41 | 1.73 | 1.73 | 100 | 1007.7 |
| 20260505101115 | 16 | 124 | 1.6 | 8.0 | 0.38 | 1.68 | 1.68 | 100 | 1007.9 |
| 20260505100032 | 16 | 123 | 1.6 | 8.0 | 0.36 | 1.60 | 1.60 | 100 | 1008.2 |
| 20260505095033 | 16 | 138 | 1.6 | 8.0 | 0.36 | 1.50 | 1.50 | 100 | 1007.6 |
| 20260505094039 | 16 | 131 | 1.6 | 9.7 | 0.41 | 1.45 | 1.45 | 100 | 1007.1 |
| 20260505093048 | 16 | 114 | 1.6 | 6.4 | 0.41 | 1.35 | 1.35 | 100 | 1007.0 |
| 20260505092056 | 16 | 265 | 1.6 | 16.1 | 0.43 | 1.32 | 1.32 | 100 | 1006.8 |
| 20260505091035 | 16 | 194 | 3.2 | 14.5 | 0.43 | 1.30 | 1.30 | 100 | 1006.6 |
| 20260505090037 | 16 | 100 | 4.8 | 14.5 | 0.41 | 1.24 | 1.24 | 100 | 1007.2 |
| 20260505085042 | 16 | 221 | 1.6 | 14.5 | 0.30 | 1.14 | 1.14 | 100 | 1007.3 |
| 20260505084048 | 16 | 222 | 4.8 | 17.7 | 0.23 | 1.04 | 1.04 | 100 | 1007.1 |
| 20260505083030 | 16 | 113 | 3.2 | 9.7 | 0.15 | 0.94 | 0.94 | 100 | 1006.8 |
| 20260505082030 | 16 | 139 | 3.2 | 8.0 | 0.13 | 0.89 | 0.89 | 100 | 1006.4 |
| 20260505081051 | 16 | 199 | 3.2 | 11.3 | 0.15 | 0.86 | 0.86 | 100 | 1006.5 |
| 20260505080046 | 16 | 186 | 3.2 | 14.5 | 0.23 | 0.84 | 0.84 | 100 | 1006.3 |
| 20260505075038 | 16 | 58 | 3.2 | 12.9 | 0.30 | 0.84 | 0.84 | 100 | 1006.5 |
| 20260505074030 | 16 | 142 | 1.6 | 12.9 | 0.38 | 0.81 | 0.81 | 100 | 1007.4 |
| 20260505073114 | 16 | 51 | 4.8 | 9.7 | 0.46 | 0.79 | 0.79 | 99 | 1008.5 |
| 20260505072058 | 16 | 180 | 0.0 | 3.2 | 0.53 | 0.76 | 0.76 | 98 | 1009.0 |
| 20260505071051 | 16 | 180 | 1.6 | 9.7 | 0.53 | 0.69 | 0.69 | 98 | 1008.8 |
| 20260505070045 | 17 | 194 | 0.0 | 8.0 | 0.53 | 0.61 | 0.61 | 96 | 1009.7 |
| 20260505065111 | 17 | 299 | 1.6 | 11.3 | 0.53 | 0.53 | 0.53 | 95 | 1009.9 |
| 20260505064030 | 17 | 227 | 3.2 | 14.5 | 0.43 | 0.43 | 0.43 | 93 | 1010.0 |
| 20260505063032 | 17 | 213 | 4.8 | 16.1 | 0.33 | 0.33 | 0.33 | 90 | 1010.3 |
| 20260505062029 | 17 | 147 | 4.8 | 16.1 | 0.23 | 0.23 | 0.23 | 86 | 1009.9 |
| 20260505061034 | 18 | 236 | 3.2 | 9.7 | 0.15 | 0.15 | 0.15 | 83 | 1008.9 |
| 20260505060044 | 18 | 109 | 3.2 | 11.3 | 0.08 | 0.08 | 0.08 | 77 | 1008.4 |
| 20260505055044 | 19 | 18 | 0.0 | 8.0 | 0.00 | 0.00 | 0.00 | 73 | 1008.2 |
| 20260505054029 | 20 | 180 | 1.6 | 11.3 | 0.00 | 0.00 | 0.00 | 67 | 1007.8 |
| 20260505053027 | 20 | 241 | 1.6 | 8.0 | 0.00 | 0.00 | 0.00 | 67 | 1007.3 |
| 20260505052029 | 20 | 268 | 1.6 | 11.3 | 0.00 | 0.00 | 0.00 | 66 | 1007.2 |
| 20260505051044 | 20 | 140 | 3.2 | 9.7 | 0.00 | 0.00 | 0.00 | 66 | 1007.3 |
| 20260505041029 | 19 | 235 | 1.6 | 8.0 | 0.00 | 0.00 | 0.00 | 68 | 1007.4 |
| 20260505040046 | 19 | 162 | 3.2 | 9.7 | 0.00 | 0.00 | 0.00 | 68 | 1007.5 |
| 20260505035058 | 19 | 94 | 3.2 | 9.7 | 0.00 | 0.00 | 0.00 | 68 | 1007.9 |
| 20260505034030 | 20 | 138 | 0.0 | 8.0 | 0.00 | 0.00 | 0.00 | 67 | 1008.2 |
| 20260505033042 | 20 | 119 | 1.6 | 9.7 | 0.00 | 0.00 | 0.00 | 66 | 1008.0 |
| 20260505032048 | 20 | 158 | 1.6 | 8.0 | 0.00 | 0.00 | 0.00 | 66 | 1007.9 |
| 20260505031032 | 20 | 210 | 0.0 | 6.4 | 0.00 | 0.00 | 0.00 | 66 | 1008.0 |
| 20260505030038 | 20 | 184 | 3.2 | 8.0 | 0.00 | 0.00 | 0.00 | 65 | 1008.1 |
| 20260505025053 | 20 | 94 | 1.6 | 11.3 | 0.00 | 0.00 | 0.00 | 65 | 1008.0 |
| 20260505024038 | 20 | 244 | 1.6 | 11.3 | 0.00 | 0.00 | 0.00 | 63 | 1008.1 |
| 20260505023031 | 21 | 148 | 1.6 | 4.8 | 0.00 | 0.00 | 0.00 | 61 | 1008.1 |
| 20260505022055 | 21 | 197 | 1.6 | 8.0 | 0.00 | 0.00 | 0.00 | 60 | 1007.9 |
| 20260505021027 | 21 | 197 | 0.0 | 11.3 | 0.00 | 0.00 | 0.00 | 59 | 1007.9 |
| 20260505020032 | 21 | 227 | 1.6 | 4.8 | 0.00 | 0.00 | 0.00 | 58 | 1007.7 |
| 20260505015033 | 21 | 219 | 3.2 | 11.3 | 0.00 | 0.00 | 0.00 | 57 | 1007.6 |
| 20260505014247 | 21 | 196 | 1.6 | 3.2 | 0.00 | 0.00 | 0.00 | 58 | 1007.6 |
| 20260505013226 | 22 | 237 | 3.2 | 11.3 | 0.00 | 0.00 | 0.00 | 57 | 1007.6 |
| 20260505012030 | 22 | 228 | 3.2 | 17.7 | 0.00 | 0.00 | 0.00 | 56 | 1007.5 |
| 20260505011026 | 22 | 230 | 8.0 | 14.5 | 0.00 | 0.00 | 0.00 | 56 | 1007.5 |
| 20260505010049 | 22 | 170 | 4.8 | 11.3 | 0.00 | 0.00 | 0.00 | 55 | 1007.5 |
| 20260505005054 | 22 | 198 | 3.2 | 16.1 | 0.00 | 0.00 | 0.00 | 54 | 1007.3 |
| 20260505004030 | 23 | 180 | 1.6 | 12.9 | 0.00 | 0.00 | 0.00 | 54 | 1007.2 |
| 20260505003027 | 23 | 223 | 4.8 | 16.1 | 0.00 | 0.00 | 0.00 | 54 | 1007.4 |
| 20260505002115 | 23 | 185 | 3.2 | 12.9 | 0.00 | 0.00 | 0.00 | 54 | 1007.3 |
| 20260505001046 | 23 | 194 | 8.0 | 20.9 | 0.00 | 0.00 | 0.00 | 54 | 1007.1 |
| 20260505000037 | 23 | 180 | 1.6 | 17.7 | 0.00 | 0.00 | 0.00 | 54 | 1006.9 |
| 20260504235036 | 24 | 244 | 3.2 | 9.7 | 0.00 | 0.00 | 0.00 | 53 | 1006.9 |
| 20260504234050 | 24 | 215 | 4.8 | 16.1 | 0.00 | 0.00 | 0.00 | 51 | 1006.9 |
| 20260504233050 | 24 | 245 | 8.0 | 14.5 | 0.00 | 0.00 | 0.00 | 50 | 1006.9 |
| 20260504232025 | 25 | 232 | 4.8 | 20.9 | 0.00 | 0.00 | 0.00 | 49 | 1006.8 |
| 20260504231055 | 25 | 226 | 6.4 | 16.1 | 0.00 | 0.00 | 0.00 | 50 | 1006.9 |
| 20260504230050 | 25 | 199 | 4.8 | 20.9 | 0.00 | 0.00 | 0.00 | 50 | 1006.9 |
| 20260504225052 | 25 | 229 | 8.0 | 24.1 | 0.00 | 0.00 | 0.00 | 49 | 1006.7 |
| 20260504224039 | 25 | 242 | 4.8 | 19.3 | 0.00 | 0.00 | 0.00 | 47 | 1006.6 |
| 20260504223042 | 26 | 248 | 4.8 | 20.9 | 0.00 | 0.00 | 0.00 | 47 | 1006.7 |
| 20260504222031 | 26 | 234 | 8.0 | 17.7 | 0.00 | 0.00 | 0.00 | 47 | 1006.6 |
| 20260504221038 | 26 | 155 | 9.7 | 24.1 | 0.00 | 0.00 | 0.00 | 45 | 1006.6 |
| 20260504220032 | 26 | 216 | 8.0 | 20.9 | 0.00 | 0.00 | 0.00 | 47 | 1006.7 |
| 20260504215045 | 26 | 175 | 9.7 | 16.1 | 0.00 | 0.00 | 0.00 | 45 | 1006.8 |
| 20260504214118 | 26 | 248 | 9.7 | 17.7 | 0.00 | 0.00 | 0.00 | 46 | 1006.7 |
| 20260504213054 | 26 | 180 | 6.4 | 14.5 | 0.00 | 0.00 | 0.00 | 47 | 1006.7 |
| 20260504212050 | 26 | 332 | 8.0 | 17.7 | 0.00 | 0.00 | 0.00 | 48 | 1006.8 |
| 20260504211040 | 26 | 94 | 8.0 | 30.6 | 0.00 | 0.00 | 0.00 | 46 | 1006.9 |
| 20260504210026 | 26 | 135 | 9.7 | 24.1 | 0.00 | 0.00 | 0.00 | 45 | 1006.9 |
| 20260504205106 | 26 | 305 | 9.7 | 25.7 | 0.00 | 0.00 | 0.00 | 44 | 1007.2 |
| 20260504204047 | 27 | 215 | 9.7 | 22.5 | 0.00 | 0.00 | 0.00 | 45 | 1007.3 |
| 20260504203029 | 26 | 258 | 9.7 | 30.6 | 0.00 | 0.00 | 0.00 | 44 | 1007.5 |
| 20260504202109 | 26 | 257 | 12.9 | 25.7 | 0.00 | 0.00 | 0.00 | 43 | 1007.5 |
| 20260504201039 | 27 | 120 | 8.0 | 30.6 | 0.00 | 0.00 | 0.00 | 44 | 1007.6 |
| 20260504200050 | 26 | 236 | 9.7 | 29.0 | 0.00 | 0.00 | 0.00 | 45 | 1007.7 |
| 20260504195035 | 26 | 278 | 12.9 | 32.2 | 0.00 | 0.00 | 0.00 | 45 | 1007.8 |
| 20260504194048 | 26 | 211 | 11.3 | 25.7 | 0.00 | 0.00 | 0.00 | 47 | 1008.1 |
| 20260504193023 | 26 | 233 | 8.0 | 24.1 | 0.00 | 0.00 | 0.00 | 45 | 1008.2 |
| 20260504192050 | 26 | 170 | 6.4 | 19.3 | 0.00 | 0.00 | 0.00 | 46 | 1008.3 |
| 20260504191040 | 26 | 253 | 8.0 | 25.7 | 0.00 | 0.00 | 0.00 | 47 | 1008.2 |
| 20260504190040 | 26 | 184 | 8.0 | 22.5 | 0.00 | 0.00 | 0.00 | 45 | 1008.2 |
| 20260504185040 | 26 | 292 | 9.7 | 20.9 | 0.00 | 0.00 | 0.00 | 45 | 1008.1 |
| 20260504184104 | 26 | 285 | 9.7 | 22.5 | 0.00 | 0.00 | 0.00 | 45 | 1008.1 |
| 20260504183026 | 26 | 210 | 9.7 | 22.5 | 0.00 | 0.00 | 0.00 | 44 | 1008.3 |
| 20260504182034 | 25 | 110 | 11.3 | 29.0 | 0.00 | 0.00 | 0.00 | 46 | 1008.2 |
| 20260504181059 | 26 | 255 | 6.4 | 24.1 | 0.00 | 0.00 | 0.00 | 47 | 1008.4 |
| 20260504180030 | 25 | 257 | 8.0 | 22.5 | 0.00 | 0.00 | 0.00 | 47 | 1008.5 |
| 20260504175111 | 25 | 242 | 14.5 | 33.8 | 0.00 | 0.00 | 0.00 | 45 | 1008.6 |
| 20260504174031 | 25 | 245 | 11.3 | 32.2 | 0.00 | 0.00 | 0.00 | 47 | 1008.5 |
| 20260504173031 | 25 | 248 | 4.8 | 32.2 | 0.00 | 0.00 | 0.00 | 49 | 1008.8 |
| 20260504172104 | 25 | 235 | 8.0 | 22.5 | 0.00 | 0.00 | 0.00 | 47 | 1008.8 |
| 20260504171032 | 24 | 238 | 8.0 | 24.1 | 0.00 | 0.00 | 0.00 | 48 | 1008.9 |
| 20260504151053 | 21 | 242 | 9.7 | 30.6 | 0.00 | 0.00 | 0.00 | 51 | 1009.7 |